Date String (YYYY-MM-DD hh:mm:ss) UTC,Instrument flags,absolute air pressure of the measurement (hPa),sample flow rate (lpm),inlet stack bypass flow (lpm),air temperature of the measurement (°C),ambient temperature measured by the external sensor (°C),aerosol sample conditioner tube jacket temperature (°C),OPC LED temperature (°C),internal box temperature (°C),relative humidity of the measurement (%),span deviation,mass concentration of particles derived from Lorenz-Mie calculation of OPC scattering (μg/m³),mass concentration of particles derived from Lorenz-Mie calculation of OPC scattering (μg/m³),mass concentration of particles derived from Lorenz-Mie calculation of OPC scattering (μg/m³)
DateTimeUTC,F1_M11,P_M11,Q1_M11,Q2_M11,T1_M11,T2_M11,T3_M11,T4_M11,T5_M11,U1_M11,ZSPAN_M11,X0_M11,X2_M11,X1_M11
2023-08-25 19:00:00,SystemResetWarning,0839.5,5.01,000.00,032.3,027.6,000.0,040.0,031.3,34.6,0000.0,0007.17,0003.95,0003.44
2023-08-25 19:01:00,SystemResetWarning,0839.5,4.99,000.00,032.2,027.6,000.0,040.0,031.3,34.9,0000.0,0007.23,0003.94,0003.44
2023-08-25 19:02:00,SystemResetWarning,0839.5,5.02,000.00,032.3,026.2,000.0,039.9,031.2,34.8,0000.0,0006.99,0003.90,0003.45
2023-08-25 19:03:00,SystemResetWarning,0839.5,5.01,000.00,032.3,025.0,000.0,039.7,031.0,34.6,0000.0,0007.06,0003.92,0003.45
2023-08-25 19:04:00,SystemResetWarning,0839.5,4.98,000.00,032.2,024.8,000.0,039.7,030.7,34.9,0000.0,0007.26,0003.96,0003.46
2023-08-25 19:05:00,SystemResetWarning,0839.4,5.02,000.00,032.0,025.1,000.0,039.8,030.6,35.4,0000.0,0006.76,0003.96,0003.45
2023-08-25 19:06:00,SystemResetWarning,0839.5,5.00,000.00,032.0,025.5,000.0,039.8,030.8,35.2,0000.0,0006.54,0003.95,0003.45
2023-08-25 19:07:00,SystemResetWarning,0839.5,5.01,000.00,032.3,025.9,000.0,039.8,031.0,35.0,0000.0,0006.61,0003.95,0003.45
2023-08-25 19:08:00,SystemResetWarning,0839.6,4.98,000.00,032.5,026.2,000.0,039.8,031.2,34.4,0000.0,0006.59,0003.94,0003.44
2023-08-25 19:09:00,SystemResetWarning,0839.5,5.00,000.00,032.6,026.5,000.0,039.8,031.2,34.0,0000.0,0006.50,0003.92,0003.44
2023-08-25 19:10:00,SystemResetWarning,0839.5,5.01,000.00,032.6,026.8,000.0,039.9,031.2,34.0,0000.0,0006.56,0003.90,0003.44
2023-08-25 19:11:00,SystemResetWarning,0839.6,5.01,000.00,032.6,027.0,000.0,040.0,031.2,33.7,0000.0,0006.48,0003.88,0003.44
2023-08-25 19:12:00,SystemResetWarning,0839.6,4.98,000.00,032.6,027.2,000.0,040.0,031.2,33.8,0000.0,0006.48,0003.89,0003.44
2023-08-25 19:13:00,SystemResetWarning,0839.5,5.00,000.00,032.5,027.3,000.0,040.1,031.3,33.9,0000.0,0006.54,0003.89,0003.43
2023-08-25 19:14:00,SystemResetWarning,0839.6,5.01,000.00,032.5,027.4,000.0,040.2,031.3,34.0,0000.0,0006.43,0003.87,0003.42
2023-08-25 19:15:00,SystemResetWarning,0839.6,5.00,000.00,032.5,027.5,000.0,040.2,031.3,34.1,0000.0,0006.34,0003.85,0003.41
2023-08-25 19:16:00,SystemResetWarning,0839.6,5.00,000.00,032.4,027.6,000.0,040.2,031.4,34.2,0000.0,0006.26,0003.84,0003.40
2023-08-25 19:17:00,SystemResetWarning,0839.7,4.99,000.00,032.4,027.6,000.0,040.2,031.4,34.3,0000.0,0006.22,0003.82,0003.39
2023-08-25 19:18:00,SystemResetWarning,0839.7,4.99,000.00,032.4,026.2,000.0,040.1,031.2,34.2,0000.0,0006.24,0003.79,0003.38
2023-08-25 19:19:00,SystemResetWarning,0839.6,5.01,000.00,032.3,025.0,000.0,039.9,031.1,34.4,0000.0,0006.26,0003.77,0003.37
2023-08-25 19:20:00,SystemResetWarning,0839.6,5.01,000.00,032.2,024.9,000.0,039.9,030.9,34.7,0000.0,0006.33,0003.77,0003.35
2023-08-25 19:21:00,SystemResetWarning,0839.5,5.01,000.00,031.9,025.1,000.0,039.9,030.7,35.0,0000.0,0006.29,0003.76,0003.34
2023-08-25 19:22:00,SystemResetWarning,0839.6,4.98,000.00,031.7,025.5,000.0,039.9,030.7,35.1,0000.0,0006.05,0003.73,0003.33
2023-08-25 19:23:00,SystemResetWarning,0839.6,5.03,000.00,031.8,025.9,000.0,039.8,030.9,34.9,0000.0,0006.05,0003.73,0003.32
2023-08-25 19:24:00,SystemResetWarning,0839.7,4.97,000.00,031.9,026.2,000.0,039.8,031.0,34.7,0000.0,0005.99,0003.72,0003.32
2023-08-25 19:25:00,SystemResetWarning,0839.7,5.02,000.00,031.9,026.5,000.0,039.8,031.0,34.6,0000.0,0006.01,0003.72,0003.31
2023-08-25 19:26:00,SystemResetWarning,0839.7,4.99,000.00,031.9,026.7,000.0,039.8,031.1,34.7,0000.0,0006.02,0003.73,0003.30
2023-08-25 19:27:00,SystemResetWarning,0839.7,4.99,000.00,031.8,026.9,000.0,039.8,031.1,34.8,0000.0,0005.99,0003.71,0003.28
2023-08-25 19:28:00,SystemResetWarning,0839.7,4.98,000.00,031.8,027.1,000.0,039.8,031.1,35.0,0000.0,0005.99,0003.70,0003.27
2023-08-25 19:29:00,SystemResetWarning,0839.7,5.04,000.00,031.8,027.3,000.0,039.8,031.1,34.7,0000.0,0005.89,0003.71,0003.27
2023-08-25 19:30:00,SystemResetWarning,0839.7,4.97,000.00,031.9,027.4,000.0,039.8,031.2,34.1,0000.0,0005.86,0003.73,0003.27
2023-08-25 19:31:00,SystemResetWarning,0839.7,5.02,000.00,031.9,027.5,000.0,039.8,031.2,33.8,0000.0,0005.89,0003.71,0003.26
2023-08-25 19:32:00,SystemResetWarning,0839.8,4.99,000.00,031.8,027.6,000.0,039.8,031.2,33.3,0000.0,0005.80,0003.70,0003.25
2023-08-25 19:33:00,SystemResetWarning,0839.7,4.98,000.00,031.8,027.6,000.0,039.8,031.2,33.2,0000.0,0005.77,0003.69,0003.23
2023-08-25 19:34:00,SystemResetWarning,0839.7,5.00,000.00,031.8,027.7,000.0,039.8,031.2,33.0,0000.0,0005.59,0003.63,0003.21
2023-08-25 19:35:00,SystemResetWarning,0839.7,5.00,000.00,031.7,027.8,000.0,039.8,031.3,32.9,0000.0,0005.55,0003.61,0003.18
2023-08-25 19:36:00,SystemResetWarning,0839.7,5.01,000.00,031.7,027.8,000.0,039.8,031.3,32.9,0000.0,0005.37,0003.55,0003.16
2023-08-25 19:37:00,SystemResetWarning,0839.7,5.01,000.00,031.6,027.9,000.0,039.8,031.3,33.0,0000.0,0005.25,0003.51,0003.13
2023-08-25 19:38:00,SystemResetWarning,0839.7,5.00,000.00,031.6,027.9,000.0,039.8,031.3,33.1,0000.0,0005.10,0003.46,0003.11
2023-08-25 19:39:00,SystemResetWarning,0839.7,4.98,000.00,031.6,026.9,000.0,039.7,031.2,33.1,0000.0,0005.04,0003.43,0003.08
2023-08-25 19:40:00,SystemResetWarning,0839.8,5.01,000.00,031.5,025.3,000.0,039.5,031.0,33.2,0000.0,0005.05,0003.41,0003.03
2023-08-25 19:41:00,SystemResetWarning,0839.7,5.01,000.00,031.4,024.7,000.0,039.4,030.8,33.5,0000.0,0004.88,0003.36,0002.96
2023-08-25 19:42:00,SystemResetWarning,0839.7,5.01,000.00,031.2,024.9,000.0,039.4,030.6,34.1,0000.0,0004.63,0003.32,0002.91
2023-08-25 19:43:00,SystemResetWarning,0839.7,5.00,000.00,031.0,025.3,000.0,039.4,030.6,34.4,0000.0,0004.68,0003.32,0002.89
2023-08-25 19:44:00,SystemResetWarning,0839.7,5.00,000.00,030.9,025.7,000.0,039.3,030.6,34.6,0000.0,0004.78,0003.31,0002.84
2023-08-25 19:45:00,SystemResetWarning,0839.7,4.99,000.00,030.8,026.0,000.0,039.3,030.7,34.9,0000.0,0005.01,0003.33,0002.83
2023-08-25 19:46:00,SystemResetWarning,0839.7,4.99,000.00,030.7,026.4,000.0,039.3,030.7,35.0,0000.0,0005.16,0003.35,0002.82
2023-08-25 19:47:00,SystemResetWarning,0839.7,5.01,000.00,030.8,026.6,000.0,039.2,030.8,34.8,0000.0,0005.23,0003.35,0002.83
2023-08-25 19:48:00,SystemResetWarning,0839.7,4.99,000.00,030.9,026.9,000.0,039.2,030.9,34.7,0000.0,0005.27,0003.36,0002.83
2023-08-25 19:49:00,SystemResetWarning,0839.8,5.02,000.00,030.9,027.0,000.0,039.2,030.9,34.8,0000.0,0005.23,0003.36,0002.84
2023-08-25 19:50:00,SystemResetWarning,0839.7,4.99,000.00,030.9,027.2,000.0,039.2,030.9,34.7,0000.0,0005.24,0003.38,0002.87
2023-08-25 19:51:00,SystemResetWarning,0839.8,4.99,000.00,030.9,027.3,000.0,039.1,031.0,34.7,0000.0,0005.25,0003.39,0002.89
2023-08-25 19:52:00,SystemResetWarning,0839.7,4.99,000.00,030.9,027.4,000.0,039.1,031.0,34.6,0000.0,0005.21,0003.40,0002.93
2023-08-25 19:53:00,SystemResetWarning,0839.7,5.00,000.00,030.9,027.5,000.0,039.1,031.0,34.6,0000.0,0005.36,0003.44,0002.99
2023-08-25 19:54:00,SystemResetWarning,0839.7,5.01,000.00,030.8,027.6,000.0,039.1,031.0,34.7,0000.0,0005.31,0003.45,0003.07
2023-08-25 19:55:00,SystemResetWarning,0839.7,5.00,000.00,030.8,027.7,000.0,039.1,031.0,34.7,0000.0,0005.39,0003.49,0003.13
2023-08-25 19:56:00,SystemResetWarning,0839.7,5.00,000.00,030.8,027.7,000.0,039.1,031.1,34.8,0000.0,0005.33,0003.53,0003.16
2023-08-25 19:57:00,SystemResetWarning,0839.7,5.01,000.00,030.8,027.8,000.0,039.1,031.1,34.7,0000.0,0005.36,0003.55,0003.18
2023-08-25 19:58:00,SystemResetWarning,0839.7,5.00,000.00,030.7,027.8,000.0,039.1,031.1,34.9,0000.0,0005.38,0003.57,0003.20
2023-08-25 19:59:00,SystemResetWarning,0839.7,5.00,000.00,030.7,027.8,000.0,039.1,031.1,34.9,0000.0,0005.44,0003.60,0003.22
